Simultaneous Nadir Overpasses (SNOs) Predictions

Prediction of SNOs between AQUA and GOES-15 Satellite Orbit:

Table of predicted SNOs for the next 14.0 days since TLE Epoch: 10/28/2023
Index Date Time (AQUA) AQUA Lat,Lon GOES-15 Lat,Lon Distance(km) Time Diff (sec)
1 10/28/2023 21:27:25 0.12, 67.14 0.13, 67.18 4.28 80
2 10/31/2023 09:33:25 0.11, 65.64 -0.13, 64.53 126.94 80
3 10/31/2023 21:54:01 0.81, 60.63 0.10, 63.95 377.35 80
4 11/02/2023 21:39:15 -0.37, 64.18 0.12, 61.84 265.93 80
5 11/03/2023 10:00:00 -0.55, 59.13 -0.09, 61.32 248.18 80
6 11/05/2023 09:45:13 0.63, 62.68 -0.11, 59.20 396.44 80
7 11/05/2023 22:05:48 0.26, 57.67 0.08, 58.62 107.18 80
8 11/08/2023 10:11:44 -0.04, 56.19 -0.08, 56.00 21.89 80
9 11/08/2023 22:32:19 0.98, 51.19 0.05, 55.40 480.07 80
10 11/10/2023 22:17:31 -0.25, 54.73 0.07, 53.30 163.62 80
